| time (UTC) | temp C | wind direction | speed KPH | gust KPH | rain 1hr cm | rain 24hr cm | rain mn cm | humidity % | barometer mb |
| 20260505030016 | 16 | 90 | 1.6 | 4.8 | 0.00 | 0.00 | 0.00 | 41 | 1004.8 |
| 20260505023056 | 17 | 0.0 | 6.4 | 0.00 | 0.00 | 0.00 | 41 | 1004.7 | |
| 20260505020016 | 18 | 180 | 3.2 | 14.5 | 0.00 | 0.00 | 0.00 | 39 | 1004.3 |
| 20260505013016 | 18 | 113 | 4.8 | 17.7 | 0.00 | 0.00 | 0.00 | 36 | 1004.6 |
| 20260505010016 | 18 | 158 | 11.3 | 24.1 | 0.00 | 0.00 | 0.00 | 40 | 1004.8 |
| 20260505003016 | 19 | 180 | 4.8 | 22.5 | 0.00 | 0.00 | 0.00 | 39 | 1005.8 |
| 20260505000016 | 20 | 315 | 1.6 | 16.1 | 0.00 | 0.00 | 0.00 | 32 | 1005.4 |
| 20260504233016 | 21 | 23 | 4.8 | 19.3 | 0.00 | 0.00 | 0.00 | 32 | 1005.8 |
| 20260504230056 | 21 | 23 | 11.3 | 30.6 | 0.00 | 0.00 | 0.00 | 32 | 1005.7 |
| 20260504223016 | 22 | 0 | 9.7 | 29.0 | 0.00 | 0.00 | 0.00 | 30 | 1006.2 |
| 20260504220016 | 22 | 225 | 3.2 | 19.3 | 0.00 | 0.00 | 0.00 | 29 | 1006.4 |
| 20260504213016 | 22 | 203 | 6.4 | 25.7 | 0.00 | 0.00 | 0.00 | 31 | 1006.7 |
| 20260504210016 | 22 | 180 | 6.4 | 27.4 | 0.00 | 0.00 | 0.00 | 28 | 1006.9 |
| 20260504203016 | 22 | 203 | 6.4 | 17.7 | 0.00 | 0.00 | 0.00 | 28 | 1006.7 |
| 20260504200015 | 22 | 180 | 6.4 | 20.9 | 0.00 | 0.00 | 0.00 | 27 | 1006.6 |
| 20260504193015 | 21 | 203 | 6.4 | 19.3 | 0.00 | 0.00 | 0.00 | 33 | 1007.4 |
| 20260504190016 | 21 | 180 | 6.4 | 22.5 | 0.00 | 0.00 | 0.00 | 32 | 1007.8 |
| 20260504183018 | 21 | 180 | 4.8 | 16.1 | 0.00 | 0.00 | 0.00 | 33 | 1008.2 |
| 20260504180016 | 20 | 180 | 8.0 | 20.9 | 0.00 | 0.00 | 0.00 | 32 | 1008.3 |
| 20260504173017 | 19 | 180 | 8.0 | 19.3 | 0.00 | 0.00 | 0.00 | 35 | 1008.5 |
| 20260504050017 | 16 | 23 | 3.2 | 6.4 | 0.00 | 0.00 | 0.00 | 24 | 1008.9 |
| 20260504043017 | 16 | 90 | 3.2 | 6.4 | 0.00 | 0.00 | 0.00 | 24 | 1008.5 |
| 20260504040057 | 17 | 90 | 3.2 | 9.7 | 0.00 | 0.00 | 0.00 | 23 | 1008.4 |
| 20260504033016 | 18 | 90 | 3.2 | 9.7 | 0.00 | 0.00 | 0.00 | 23 | 1008.0 |